Location: Tel Aviv
(32.0670°N, 34.7670°E)
Time: 03:42:49
(UTC+02:00)

Courier 1B - All Passes

Search period start: 28 January 2022 00:00
Search period end: 07 February 2022 00:00
Orbit: 962 x 1209 km, 28.3° (Epoch: 27 January)

Date Brightness Start Highest point End Pass type
(mag) Time Alt. Az. Time Alt. Az. Time Alt. Az.
28 Jan - 00:34:52 10° WSW 00:39:42 18° SSW 00:44:25 10° S night (unlit)
28 Jan - 16:03:55 10° SSW 16:10:01 28° SSE 16:16:20 10° E daylight
28 Jan - 17:56:24 10° WSW 18:03:48 55° SSE 18:11:26 10° E visible
28 Jan - 19:50:17 10° W 19:58:02 68° S 20:05:50 10° E visible
28 Jan - 21:44:41 10° W 21:52:15 51° SSW 21:59:38 10° ESE visible
28 Jan - 23:40:01 10° WSW 23:45:59 24° SSW 23:51:46 10° SSE night (unlit)
29 Jan - 15:11:05 10° SSW 15:16:18 21° SSE 15:21:42 10° ESE daylight
29 Jan - 17:02:47 10° SW 17:09:55 48° SSE 17:17:20 10° E daylight
29 Jan - 18:56:24 10° WSW 19:04:03 68° S 19:11:52 10° E visible
29 Jan - 20:50:39 10° W 20:58:19 58° SSW 21:05:56 10° ESE visible
29 Jan - 22:45:33 10° W 22:52:13 31° SSW 22:58:44 10° SSE night (unlit)
30 Jan - 14:18:46 10° S 14:22:38 15° SSE 14:26:37 10° ESE daylight
30 Jan - 16:09:21 10° SW 16:16:05 40° SSE 16:23:10 10° E daylight
30 Jan - 18:02:35 10° WSW 18:10:05 65° S 18:17:51 10° E visible
30 Jan - 19:56:41 10° W 20:04:21 63° S 20:12:06 10° ESE visible
30 Jan - 21:51:17 10° W 21:58:24 38° SSW 22:05:25 10° SE visible
30 Jan - 23:48:05 10° WSW 23:51:58 14° SSW 23:55:47 10° S night (unlit)
31 Jan - 15:16:06 10° SW 15:22:20 32° SSE 15:28:52 10° E daylight
31 Jan - 17:08:52 10° WSW 17:16:09 60° S 17:23:47 10° E daylight
31 Jan - 19:02:47 10° W 19:10:23 67° S 19:18:10 10° ESE visible
31 Jan - 20:57:09 10° W 21:04:31 46° SSW 21:11:54 10° SE visible
31 Jan - 22:52:52 10° WSW 22:58:14 20° SSW 23:03:31 10° SSE night (unlit)
01 Feb - 14:23:06 10° SSW 14:28:38 25° SSE 14:34:25 10° E daylight
01 Feb - 16:15:15 10° WSW 16:22:17 53° SSE 16:29:41 10° E daylight
01 Feb - 18:08:56 10° W 18:16:24 68° S 18:24:11 10° E visible
01 Feb - 20:03:08 10° W 20:10:37 53° SSW 20:18:12 10° ESE visible
01 Feb - 21:58:14 10° W 22:04:28 26° SSW 22:10:39 10° SSE visible
02 Feb - 13:30:27 10° SSW 13:35:00 19° SSE 13:39:42 10° ESE daylight
02 Feb - 15:21:47 10° SW 15:28:27 45° SSE 15:35:33 10° E daylight
02 Feb - 17:15:10 10° WSW 17:22:28 67° S 17:30:09 10° E daylight
02 Feb - 19:09:12 10° W 19:16:41 59° S 19:24:22 10° ESE visible
02 Feb - 21:03:53 10° W 21:10:39 33° SSW 21:17:26 10° SE visible
02 Feb - 23:02:16 10° SW 23:04:12 11° SSW 23:06:09 10° SSW night (unlit)
03 Feb - 12:38:31 10° S 12:41:24 13° SSE 12:44:21 10° ESE daylight
03 Feb - 14:28:27 10° SW 14:34:43 37° SSE 14:41:22 10° E daylight
03 Feb - 16:21:28 10° WSW 16:28:34 63° S 16:36:06 10° E daylight
03 Feb - 18:15:22 10° W 18:22:44 64° S 18:30:27 10° ESE visible
03 Feb - 20:09:44 10° W 20:16:47 40° SSW 20:23:58 10° SE visible
03 Feb - 22:06:04 10° WSW 22:10:27 16° SSW 22:14:51 10° S visible
04 Feb - 13:35:19 10° SSW 13:41:02 29° SSE 13:47:04 10° E daylight
04 Feb - 15:27:51 10° WSW 15:34:43 57° SSE 15:42:01 10° E daylight
04 Feb - 17:21:34 10° W 17:28:49 66° S 17:36:28 10° ESE daylight
04 Feb - 19:15:45 10° W 19:22:55 47° SSW 19:30:20 10° SE visible
04 Feb - 21:11:08 10° WSW 21:16:41 21° SSW 21:22:17 10° SSE visible
05 Feb - 12:42:26 10° SSW 12:47:26 22° SSE 12:52:36 10° ESE daylight
05 Feb - 14:34:20 10° WSW 14:40:55 50° SSE 14:47:56 10° E daylight
05 Feb - 16:27:50 10° W 16:34:54 67° S 16:42:26 10° E daylight
05 Feb - 18:21:51 10° W 18:29:02 53° SSW 18:36:33 10° ESE visible
05 Feb - 20:16:41 10° W 20:22:54 27° SSW 20:29:14 10° SSE visible
06 Feb - 11:49:58 10° S 11:53:51 16° SSE 11:57:49 10° ESE daylight
06 Feb - 13:40:57 10° SW 13:47:12 42° SSE 13:53:49 10° E daylight
06 Feb - 15:34:10 10° WSW 15:41:02 65° S 15:48:24 10° E daylight
06 Feb - 17:28:02 10° W 17:35:08 59° S 17:42:40 10° ESE visible
06 Feb - 19:22:29 10° W 19:29:05 33° SSW 19:35:54 10° SE visible
06 Feb - 21:20:02 10° SW 21:22:42 12° SSW 21:25:23 10° SSW visible
